This is the latest recevied weather packets stored in our database for station/object KI4NG. If no packets are shown the sender has not sent any weather packets the latest 10 day(s).
| Time | Temp. | Humidity | Pressure | Rain* | Wind** | Luminosity | Snow |
|---|---|---|---|---|---|---|---|
| 1777874376 | 8.33° C | 74% | 1017.3 hPa | 0 mm | - | 0 W/m² | - |
| 1777874074 | 7.78° C | 76% | 1017.3 hPa | 0 mm | - | 0 W/m² | - |
| 1777873772 | 7.78° C | 81% | 1017.1 hPa | 0 mm | - | 0 W/m² | - |
| 1777873468 | 8.33° C | 77% | 1017.3 hPa | 0 mm | - | 0 W/m² | - |
| 1777873165 | 8.33° C | 78% | 1017.4 hPa | 0 mm | - | 0 W/m² | - |
| 1777872861 | 8.89° C | 75% | 1017.3 hPa | 0 mm | - | 0 W/m² | - |
| 1777872559 | 8.89° C | 74% | 1017.3 hPa | 0 mm | - | 0 W/m² | - |
| 1777872256 | 8.89° C | 74% | 1017.4 hPa | 0 mm | - | 0 W/m² | - |
| 1777871954 | 8.89° C | 74% | 1017.5 hPa | 0 mm | - | 0 W/m² | - |
| 1777871649 | 8.33° C | 76% | 1017.4 hPa | 0 mm | - | 0 W/m² | - |
| 1777871346 | 8.89° C | 72% | 1017.6 hPa | 0 mm | - | 0 W/m² | - |
| 1777871044 | 8.89° C | 78% | 1017.4 hPa | 0 mm | - | 0 W/m² | - |
| 1777870741 | 8.89° C | 73% | 1017.3 hPa | 0 mm | - | 0 W/m² | - |
| 1777870436 | 8.89° C | 75% | 1017.3 hPa | 0 mm | - | 0 W/m² | - |
| 1777870133 | 8.89° C | 76% | 1017.4 hPa | 0 mm | - | 0 W/m² | - |
| 1777869830 | 8.89° C | 73% | 1017.5 hPa | 0 mm | - | 0 W/m² | - |
| 1777869528 | 8.89° C | 72% | 1017.5 hPa | 0 mm | - | 0 W/m² | - |
| 1777869224 | 9.44° C | 74% | 1017.4 hPa | 0 mm | - | 0 W/m² | - |
| 1777868922 | 8.89° C | 73% | 1017.4 hPa | 0 mm | - | 0 W/m² | - |
| 1777868618 | 8.89° C | 75% | 1017.7 hPa | 0 mm | - | 0 W/m² | - |
| 1777868315 | 8.33° C | 75% | 1017.6 hPa | 0 mm | - | 0 W/m² | - |
| 1777868011 | 8.33° C | 77% | 1017.7 hPa | 0 mm | - | 0 W/m² | - |
| 1777867707 | 8.33° C | 78% | 1017.6 hPa | 0 mm | - | 0 W/m² | - |
| 1777867405 | 8.33° C | 77% | 1017.6 hPa | 0 mm | - | 0 W/m² | - |
| 1777867100 | 8.89° C | 74% | 1017.6 hPa | 0 mm | - | 0 W/m² | - |
* Rain latest hour (hover to see other rain measurements)
** Current wind speed in m/s (hover to see current wind gust speed)